Regional Weather Roundup
Issued by NWS Goodland, KS

Home | Current Version | Previous Version | Text Only | Print | Product List | Glossary Off
Versions: 1 2 3 4 5 6 7 8 9 10 11 12 13 14 15 16 17 18 19 20 21 22 23 24 25 26 27 28 29 30 31 32 33 34 35 36 37 38 39 40 41 42 43 44 45 46 47 48 49 50

000
ASUS43 KGLD 170659
RWRGLD

GOODLAND FORECAST AREA HOURLY WEATHER ROUNDUP
NATIONAL WEATHER SERVICE GOODLAND KS
100 AM MDT THU AUG 17 2017

...OFFICIAL OBSERVATIONS...

CITY           SKY/WX    TMP DP  RH WIND       PRES   REMARKS
GOODLAND KS    CLEAR     56  54  93 SW5       30.10R
HILL CITY KS   CLEAR     61  60  97 W7        30.02S
IMPERIAL NEB   CLEAR     56  52  86 W6        30.07R
MCCOOK NEB     CLEAR     56  56 100 SW7       30.04R
AKRON CO       CLEAR     57  51  80 S7        30.14S
BURLINGTON CO  CLEAR     54  52  93 SW5       30.13S
LIMON CO       CLOUDY    50  49  96 N3        30.20R
$$

...UNOFFICIAL OBSERVATIONS...

CITY           SKY/WX    TMP DP  RH WIND       PRES   REMARKS
LENORA KS        N/A     61  32  33 W6          N/A
NORTON KS      CLEAR     57  54  88 W7        30.01S
TRENTON NEB      N/A     59  32  36 CALM        N/A
KIT CARSON CO    N/A     59  53  80 CALM        N/A
YUMA CO        FAIR      52  50  93 SW6       30.11S
$$



USA.gov is the U.S. government's official web portal to all federal, state and local government web resources and services.